| time (UTC) | temp F | wind direction | speed MPH | gust MPH | rain 1hr in | rain 24hr in | rain mn in | humidity % | barometer mb |
| 20260504034501 | 54 | 181 | 3.0 | 9.0 | 0.00 | 0.02 | 0.02 | 65 | 1010.1 |
| 20260504034002 | 54 | 154 | 4.0 | 9.0 | 0.00 | 0.02 | 0.02 | 65 | 1010.2 |
| 20260504033003 | 54 | 177 | 4.0 | 8.0 | 0.00 | 0.02 | 0.02 | 64 | 1010.3 |
| 20260504032502 | 54 | 155 | 4.0 | 9.0 | 0.00 | 0.02 | 0.02 | 64 | 1010.3 |
| 20260504032002 | 54 | 193 | 4.0 | 9.0 | 0.00 | 0.02 | 0.02 | 64 | 1010.3 |
| 20260504031502 | 54 | 176 | 4.0 | 8.0 | 0.00 | 0.02 | 0.02 | 64 | 1010.3 |
| 20260504031003 | 55 | 194 | 4.0 | 8.0 | 0.00 | 0.02 | 0.02 | 63 | 1010.3 |
| 20260504030503 | 55 | 159 | 5.0 | 9.0 | 0.00 | 0.02 | 0.02 | 63 | 1010.3 |
| 20260504030004 | 55 | 178 | 5.0 | 10.0 | 0.00 | 0.02 | 0.02 | 63 | 1010.4 |
| 20260504025504 | 55 | 194 | 5.0 | 10.0 | 0.00 | 0.02 | 0.02 | 63 | 1010.4 |
| 20260504025005 | 55 | 222 | 5.0 | 9.0 | 0.00 | 0.02 | 0.02 | 63 | 1010.4 |
| 20260504024004 | 55 | 133 | 5.0 | 9.0 | 0.00 | 0.02 | 0.02 | 63 | 1010.5 |
| 20260504023504 | 55 | 176 | 5.0 | 9.0 | 0.00 | 0.02 | 0.02 | 63 | 1010.6 |
| 20260504023003 | 55 | 203 | 4.0 | 8.0 | 0.00 | 0.02 | 0.02 | 63 | 1010.6 |
| 20260504022502 | 55 | 166 | 4.0 | 7.0 | 0.00 | 0.02 | 0.02 | 63 | 1010.5 |
| 20260504022002 | 54 | 178 | 4.0 | 7.0 | 0.00 | 0.02 | 0.02 | 63 | 1010.5 |
| 20260504021503 | 55 | 153 | 3.0 | 6.0 | 0.00 | 0.02 | 0.02 | 63 | 1010.5 |
| 20260504021003 | 55 | 158 | 3.0 | 7.0 | 0.00 | 0.02 | 0.02 | 63 | 1010.5 |
| 20260504020005 | 55 | 150 | 3.0 | 6.0 | 0.00 | 0.02 | 0.02 | 63 | 1010.5 |
| 20260504015003 | 55 | 191 | 2.0 | 7.0 | 0.00 | 0.02 | 0.02 | 62 | 1010.4 |
| 20260504014004 | 56 | 189 | 4.0 | 8.0 | 0.00 | 0.02 | 0.02 | 61 | 1010.4 |
| 20260504013502 | 56 | 194 | 4.0 | 7.0 | 0.00 | 0.02 | 0.02 | 60 | 1010.3 |
| 20260504013002 | 56 | 179 | 5.0 | 8.0 | 0.00 | 0.02 | 0.02 | 60 | 1010.4 |
| 20260504012501 | 56 | 234 | 4.0 | 9.0 | 0.00 | 0.02 | 0.02 | 60 | 1010.4 |
| 20260504012003 | 56 | 179 | 4.0 | 9.0 | 0.00 | 0.02 | 0.02 | 60 | 1010.4 |
| 20260504011503 | 56 | 166 | 4.0 | 8.0 | 0.00 | 0.02 | 0.02 | 59 | 1010.5 |
| 20260504011002 | 57 | 226 | 4.0 | 8.0 | 0.00 | 0.02 | 0.02 | 59 | 1010.5 |
| 20260504010501 | 57 | 208 | 3.0 | 9.0 | 0.00 | 0.02 | 0.02 | 59 | 1010.4 |
| 20260504010005 | 57 | 151 | 4.0 | 8.0 | 0.00 | 0.02 | 0.02 | 58 | 1010.5 |
| 20260504005502 | 57 | 160 | 5.0 | 8.0 | 0.00 | 0.02 | 0.02 | 58 | 1010.5 |
| 20260504005002 | 57 | 167 | 4.0 | 8.0 | 0.00 | 0.02 | 0.02 | 58 | 1010.6 |
| 20260504004502 | 57 | 198 | 4.0 | 9.0 | 0.00 | 0.02 | 0.02 | 58 | 1010.6 |
| 20260504004003 | 57 | 205 | 5.0 | 10.0 | 0.00 | 0.02 | 0.02 | 57 | 1010.5 |
| 20260504003502 | 57 | 221 | 5.0 | 10.0 | 0.00 | 0.02 | 0.02 | 57 | 1010.6 |
| 20260504003001 | 57 | 212 | 6.0 | 10.0 | 0.00 | 0.02 | 0.02 | 57 | 1010.6 |
| 20260504002503 | 57 | 238 | 4.0 | 11.0 | 0.00 | 0.02 | 0.02 | 57 | 1010.6 |
| 20260504002004 | 57 | 204 | 5.0 | 11.0 | 0.00 | 0.02 | 0.02 | 57 | 1010.6 |
| 20260504001501 | 57 | 223 | 5.0 | 9.0 | 0.00 | 0.02 | 0.02 | 56 | 1010.6 |
| 20260504000501 | 57 | 205 | 4.0 | 10.0 | 0.00 | 0.02 | 0.02 | 56 | 1010.7 |
| 20260504000007 | 58 | 169 | 4.0 | 9.0 | 0.00 | 0.02 | 0.02 | 56 | 1010.8 |
| 20260503235503 | 58 | 203 | 5.0 | 13.0 | 0.00 | 0.02 | 0.02 | 55 | 1010.8 |
| 20260503235001 | 58 | 192 | 6.0 | 13.0 | 0.00 | 0.02 | 0.02 | 54 | 1010.9 |
| 20260503234501 | 58 | 200 | 4.0 | 13.0 | 0.00 | 0.02 | 0.02 | 54 | 1010.9 |
| 20260503234004 | 58 | 191 | 4.0 | 11.0 | 0.00 | 0.02 | 0.02 | 54 | 1010.9 |
| 20260503233502 | 58 | 217 | 6.0 | 12.0 | 0.00 | 0.02 | 0.02 | 53 | 1011.0 |
| 20260503233002 | 58 | 172 | 6.0 | 12.0 | 0.00 | 0.02 | 0.02 | 54 | 1011.0 |
| 20260503232501 | 58 | 205 | 5.0 | 11.0 | 0.00 | 0.02 | 0.02 | 55 | 1011.0 |
| 20260503232001 | 59 | 214 | 5.0 | 15.0 | 0.00 | 0.02 | 0.02 | 54 | 1011.1 |
| 20260503231503 | 59 | 227 | 7.0 | 15.0 | 0.00 | 0.02 | 0.02 | 53 | 1011.1 |
| 20260503231003 | 59 | 211 | 6.0 | 11.0 | 0.00 | 0.02 | 0.02 | 53 | 1011.1 |
| 20260503230501 | 59 | 205 | 7.0 | 11.0 | 0.00 | 0.02 | 0.02 | 1011.2 | |
| 20260503225504 | 59 | 207 | 6.0 | 14.0 | 0.00 | 0.02 | 0.02 | 53 | 1011.2 |
| 20260503225002 | 59 | 220 | 6.0 | 14.0 | 0.00 | 0.02 | 0.02 | 53 | 1011.3 |
| 20260503224502 | 59 | 195 | 7.0 | 16.0 | 0.00 | 0.02 | 0.02 | 52 | 1011.4 |
| 20260503224002 | 60 | 222 | 9.0 | 16.0 | 0.00 | 0.02 | 0.02 | 51 | 1011.3 |
| 20260503223505 | 60 | 217 | 10.0 | 16.0 | 0.00 | 0.02 | 0.02 | 50 | 1011.3 |
| 20260503223002 | 60 | 214 | 9.0 | 16.0 | 0.00 | 0.02 | 0.02 | 50 | 1011.2 |
| 20260503222503 | 60 | 154 | 8.0 | 16.0 | 0.00 | 0.02 | 0.02 | 51 | 1011.3 |
| 20260503222002 | 60 | 237 | 9.0 | 15.0 | 0.00 | 0.02 | 0.02 | 52 | 1011.2 |
| 20260503221502 | 59 | 212 | 7.0 | 16.0 | 0.00 | 0.02 | 0.02 | 51 | 1011.3 |
| 20260503221002 | 59 | 220 | 8.0 | 16.0 | 0.00 | 0.02 | 0.02 | 52 | 1011.4 |
| 20260503220006 | 59 | 225 | 8.0 | 12.0 | 0.00 | 0.02 | 0.02 | 52 | 1011.4 |
| 20260503215504 | 59 | 171 | 7.0 | 13.0 | 0.00 | 0.02 | 0.02 | 52 | 1011.3 |
| 20260503215002 | 59 | 227 | 7.0 | 14.0 | 0.00 | 0.02 | 0.02 | 52 | 1011.4 |
| 20260503214002 | 59 | 161 | 7.0 | 17.0 | 0.00 | 0.02 | 0.02 | 52 | 1011.6 |
| 20260503213503 | 59 | 224 | 6.0 | 15.0 | 0.00 | 0.02 | 0.02 | 52 | 1011.6 |
| 20260503213002 | 59 | 215 | 10.0 | 16.0 | 0.00 | 0.02 | 0.02 | 51 | 1011.7 |
| 20260503212003 | 60 | 219 | 11.0 | 18.0 | 0.00 | 0.02 | 0.02 | 51 | 1011.8 |
| 20260503211502 | 60 | 204 | 9.0 | 17.0 | 0.00 | 0.02 | 0.02 | 51 | 1011.9 |
| 20260503211002 | 59 | 221 | 10.0 | 17.0 | 0.00 | 0.02 | 0.02 | 50 | 1012.1 |
| 20260503210502 | 59 | 195 | 9.0 | 17.0 | 0.00 | 0.02 | 0.02 | 52 | 1012.1 |
| 20260503205500 | 58 | 202 | 6.0 | 16.0 | 0.00 | 0.02 | 0.02 | 54 | 1012.4 |
| 20260503205002 | 58 | 191 | 8.0 | 16.0 | 0.00 | 0.02 | 0.02 | 53 | 1012.5 |
| 20260503204501 | 58 | 239 | 10.0 | 16.0 | 0.00 | 0.02 | 0.02 | 52 | 1012.6 |
| 20260503204001 | 58 | 195 | 11.0 | 16.0 | 0.00 | 0.02 | 0.02 | 53 | 1012.7 |
| 20260503203501 | 58 | 240 | 8.0 | 14.0 | 0.00 | 0.02 | 0.02 | 55 | 1012.8 |
| 20260503203001 | 58 | 169 | 9.0 | 12.0 | 0.00 | 0.02 | 0.02 | 56 | 1012.9 |
| 20260503202502 | 57 | 199 | 7.0 | 11.0 | 0.00 | 0.02 | 0.02 | 62 | 1013.1 |
| 20260503202000 | 56 | 102 | 2.0 | 6.0 | 0.00 | 0.02 | 0.02 | 67 | 1013.2 |
| 20260503201500 | 55 | 129 | 3.0 | 6.0 | 0.00 | 0.02 | 0.02 | 68 | 1013.3 |
| 20260503201002 | 55 | 133 | 2.0 | 7.0 | 0.00 | 0.02 | 0.02 | 70 | 1013.4 |
| 20260503200501 | 54 | 109 | 3.0 | 7.0 | 0.00 | 0.02 | 0.02 | 70 | 1013.6 |
| 20260503200004 | 54 | 122 | 3.0 | 6.0 | 0.00 | 0.02 | 0.02 | 73 | 1013.7 |
| 20260503195501 | 53 | 130 | 1.0 | 7.0 | 0.00 | 0.02 | 0.02 | 73 | 1013.9 |
| 20260503194501 | 52 | 84 | 2.0 | 4.0 | 0.00 | 0.02 | 0.02 | 76 | 1014.4 |
| 20260503194000 | 52 | 124 | 2.0 | 4.0 | 0.01 | 0.02 | 0.02 | 74 | 1014.6 |
| 20260503193500 | 52 | 101 | 0.0 | 2.0 | 0.01 | 0.02 | 0.02 | 76 | 1014.6 |
| 20260503193000 | 51 | 94 | 0.0 | 2.0 | 0.01 | 0.02 | 0.02 | 78 | 1014.8 |
| 20260503192500 | 51 | 82 | 0.0 | 2.0 | 0.02 | 0.02 | 0.02 | 1014.9 | |
| 20260503192005 | 51 | 82 | 0.0 | 1.0 | 0.02 | 0.02 | 0.02 | 79 | 1014.9 |
| 20260503191500 | 50 | 78 | 0.0 | 3.0 | 0.02 | 0.02 | 0.02 | 79 | 1014.9 |
| 20260503191004 | 50 | 60 | 0.0 | 3.0 | 0.02 | 0.02 | 0.02 | 78 | 1015.1 |
| 20260503190502 | 50 | 49 | 0.0 | 3.0 | 0.02 | 0.02 | 0.02 | 78 | 1015.3 |
| 20260503190005 | 50 | 49 | 0.0 | 3.0 | 0.02 | 0.02 | 0.02 | 77 | 1015.5 |
| 20260503185500 | 51 | 53 | 1.0 | 2.0 | 0.02 | 0.02 | 0.02 | 78 | 1015.7 |
| 20260503185002 | 51 | 243 | 0.0 | 1.0 | 0.02 | 0.02 | 0.02 | 75 | 1015.6 |
| 20260503184501 | 51 | 243 | 0.0 | 5.0 | 0.02 | 0.02 | 0.02 | 72 | 1015.7 |
| 20260503183501 | 51 | 243 | 2.0 | 10.0 | 0.01 | 0.01 | 0.01 | 72 | 1015.7 |
| 20260503183000 | 51 | 233 | 5.0 | 12.0 | 0.01 | 0.01 | 0.01 | 69 | 1015.8 |
| 20260503182503 | 52 | 259 | 7.0 | 16.0 | 0.00 | 0.00 | 0.00 | 68 | 1015.9 |
| 20260503182003 | 52 | 234 | 10.0 | 16.0 | 0.00 | 0.00 | 0.00 | 65 | 1016.0 |
| 20260503181501 | 0 | 248 | 10.0 | 21.0 | 0.00 | 0.00 | 0.00 | 100 | 1016.0 |
| 20260503181000 | 54 | 241 | 14.0 | 24.0 | 0.00 | 0.00 | 0.00 | 60 | 1015.9 |
| 20260503180501 | 56 | 256 | 11.0 | 22.0 | 0.00 | 0.00 | 0.00 | 52 | 1015.6 |
| 20260503175500 | 57 | 250 | 11.0 | 17.0 | 0.00 | 0.00 | 0.00 | 49 | 1015.7 |
| 20260503175002 | 0 | 236 | 8.0 | 19.0 | 0.00 | 0.00 | 0.00 | 1015.8 | |
| 20260503174501 | 0 | 238 | 10.0 | 20.0 | 0.00 | 0.00 | 0.00 | 1015.8 | |
| 20260503174001 | 0 | 252 | 12.0 | 20.0 | 0.00 | 0.00 | 0.00 | 49 | 1015.9 |
| 20260503173001 | 0 | 247 | 11.0 | 16.0 | 0.00 | 0.00 | 0.00 | 49 | 1016.0 |
| 20260503172001 | 58 | 231 | 12.0 | 20.0 | 0.00 | 0.00 | 0.00 | 48 | 1016.2 |
| 20260503171500 | 0 | 247 | 13.0 | 20.0 | 0.00 | 0.00 | 0.00 | 47 | 1016.2 |
| 20260503171003 | 0 | 236 | 11.0 | 19.0 | 0.00 | 0.00 | 0.00 | 100 | 1016.1 |
| 20260503170501 | 58 | 213 | 11.0 | 18.0 | 0.00 | 0.00 | 0.00 | 1016.2 | |
| 20260503151001 | 56 | 229 | 11.0 | 16.0 | 0.00 | 0.00 | 0.00 | 49 | 1017.5 |
| 20260503150503 | 56 | 240 | 10.0 | 16.0 | 0.00 | 0.00 | 0.00 | 50 | 1017.5 |
| 20260503131002 | 48 | 247 | 9.0 | 14.0 | 0.00 | 0.00 | 0.00 | 58 | 1017.8 |
| 20260503130501 | 48 | 248 | 8.0 | 15.0 | 0.00 | 0.00 | 0.00 | 57 | 1017.8 |
| 20260503110500 | 40 | 261 | 5.0 | 9.0 | 0.00 | 0.00 | 0.00 | 68 | 1017.6 |
| 20260503090500 | 40 | 182 | 2.0 | 5.0 | 0.00 | 0.00 | 0.00 | 68 | 1017.4 |
| 20260503081459 | 41 | 219 | 2.0 | 4.0 | 0.00 | 0.00 | 0.00 | 67 | 1017.5 |
| 20260503081000 | 0 | 249 | 2.0 | 4.0 | 0.00 | 0.00 | 0.00 | 67 | 1017.5 |
| 20260503072459 | 40 | 202 | 1.0 | 4.0 | 0.00 | 0.00 | 0.00 | 68 | 1017.6 |
| 20260503072001 | 40 | 226 | 2.0 | 4.0 | 0.00 | 0.00 | 0.00 | 67 | 1017.6 |
| 20260503071500 | 40 | 198 | 2.0 | 4.0 | 0.00 | 0.00 | 0.00 | 68 | 1017.6 |
| 20260503071000 | 40 | 220 | 1.0 | 4.0 | 0.00 | 0.00 | 0.00 | 68 | 1017.6 |
| 20260503070501 | 39 | 222 | 1.0 | 2.0 | 0.00 | 0.00 | 0.00 | 68 | 1017.6 |
| 20260503054001 | 39 | 199 | 0.0 | 1.0 | 0.00 | 0.00 | 0.00 | 71 | 1018.3 |
| 20260503052959 | 39 | 200 | 1.0 | 1.0 | 0.00 | 0.00 | 0.00 | 71 | 1018.3 |
| 20260503052500 | 39 | 199 | 0.0 | 2.0 | 0.00 | 0.00 | 0.00 | 71 | 1018.3 |
| 20260503051959 | 39 | 209 | 1.0 | 2.0 | 0.00 | 0.00 | 0.00 | 72 | 1018.4 |
| 20260503051000 | 39 | 196 | 1.0 | 2.0 | 0.00 | 0.00 | 0.00 | 71 | 1018.3 |
| 20260503050500 | 39 | 194 | 1.0 | 2.0 | 0.00 | 0.00 | 0.00 | 71 | 1018.4 |
| 20260503050005 | 39 | 194 | 1.0 | 2.0 | 0.00 | 0.00 | 0.00 | 71 | 1018.4 |
| 20260503045502 | 39 | 196 | 1.0 | 2.0 | 0.00 | 0.00 | 0.00 | 71 | 1018.4 |
| 20260503044002 | 40 | 200 | 1.0 | 2.0 | 0.00 | 0.00 | 0.00 | 71 | 1018.3 |
| 20260503043502 | 40 | 186 | 1.0 | 2.0 | 0.00 | 0.00 | 0.00 | 71 | 1018.4 |
| 20260503043004 | 40 | 186 | 0.0 | 1.0 | 0.00 | 0.00 | 0.00 | 71 | 1018.4 |
| 20260503042003 | 40 | 209 | 1.0 | 2.0 | 0.00 | 0.00 | 0.00 | 70 | 1018.4 |
| 20260503041503 | 40 | 188 | 2.0 | 2.0 | 0.00 | 0.00 | 0.00 | 69 | 1018.3 |
| 20260503041003 | 40 | 171 | 1.0 | 2.0 | 0.00 | 0.00 | 0.00 | 69 | 1018.3 |
| 20260503040502 | 40 | 167 | 2.0 | 2.0 | 0.00 | 0.00 | 0.00 | 68 | 1018.3 |
| 20260503035503 | 41 | 171 | 2.0 | 2.0 | 0.00 | 0.00 | 0.00 | 68 | 1018.3 |
| 20260503035003 | 41 | 180 | 1.0 | 2.0 | 0.00 | 0.00 | 0.00 | 68 | 1018.4 |